Weather History for KPPA - September, 2013

Change the Weather History Date:

Saturday, September 14, 2013

  Actual Average (KBGD) Record (KBGD)
Temperature  
Mean Temperature 73 °F 73 °F  
Max Temperature 84 °F 85 °F 100 °F (1956)
Min Temperature 63 °F 61 °F 39 °F (1989)
Degree Days  
Heating Degree Days 0 0  
Month to date heating degree days 0  
Since 1 July heating degree days 1  
Cooling Degree Days 8 8  
Month to date cooling degree days 140  
Year to date cooling degree days 1690  
Growing Degree Days 23 (Base 50)    
Moisture  
Dew Point 61 °F    
Average Humidity 73    
Maximum Humidity 93    
Minimum Humidity 41    
Precipitation  
Precipitation 0.00 in 0.08 in 0.83 in (1979)
Month to date precipitation 1.19  
Year to date precipitation 17.20  
Snow  
Snow 0.00 in - 0.00 in (2013)
Month to date snowfall  
Since 1 July snowfall  
Since 1 September snowfall  
Snow Depth -    
Sea Level Pressure  
Sea Level Pressure 30.04 in    
Wind  
Wind Speed 11 mph (SSE)    
Max Wind Speed 18 mph    
Max Gust Speed 24 mph    
Visibility 9 miles    
Events Rain    
T = Trace of Precipitation, MM = Missing Value Source: NWS Daily Summary

Daily Weather History Graph

Daily Weather History Graph

Search for Another Location

Airport or City:

Trip Planner

Search our weather history database for the weather conditions in past years. The results will help you decide how hot, cold, wet, or windy it might be!

Date:

Astronomy

Sep. 14, 2013 Rise Set
Actual Time 7:26 AM CDT 7:52 PM CDT
Civil Twilight 7:00 AM CDT 8:17 PM CDT
Nautical Twilight 6:30 AM CDT 8:47 PM CDT
Astronomical Twilight 5:59 AM CDT 9:18 PM CDT
Moon 4:27 PM CDT (9/14) 2:08 AM CDT (9/14)
Length of Visible Light 13h 17m
Length of Day
12h 26m
Waxing Gibbous, 72% of the Moon is Illuminated
Sep 14
Waxing Gibbous
Sep 19
Full
Sep 26
Last Quarter
Oct 4
New
Oct 11
First Quarter

Hourly Weather History & Observations

Time (CDT) Temp. Heat Index Dew Point Humidity Pressure Visibility Wind Dir Wind Speed Gust Speed Precip Events Conditions
12:15 AM 65.8 °F - 61.3 °F 85% 30.07 in 10.0 mi SE 11.5 mph - N/A   Scattered Clouds
12:35 AM 65.7 °F - 61.5 °F 86% 30.07 in 10.0 mi SE 9.2 mph - N/A   Mostly Cloudy
12:55 AM 65.5 °F - 61.7 °F 88% 30.08 in 10.0 mi Calm Calm - N/A   Overcast
1:15 AM 65.3 °F - 61.7 °F 88% 30.08 in 10.0 mi SE 5.8 mph - N/A   Mostly Cloudy
1:35 AM 64.9 °F - 61.7 °F 89% 30.07 in 10.0 mi ESE 8.1 mph - N/A   Mostly Cloudy
1:55 AM 64.6 °F - 61.7 °F 90% 30.07 in 7.0 mi ESE 9.2 mph - N/A   Scattered Clouds
2:15 AM 64.6 °F - 61.3 °F 89% 30.07 in 7.0 mi SE 6.9 mph - N/A   Clear
2:35 AM 64.0 °F - 61.2 °F 90% 30.07 in 7.0 mi SE 4.6 mph - N/A   Clear
2:55 AM 64.0 °F - 61.0 °F 90% 30.07 in 7.0 mi SSE 4.6 mph - N/A   Scattered Clouds
3:15 AM 64.0 °F - 61.2 °F 90% 30.07 in 7.0 mi SSE 5.8 mph - N/A   Mostly Cloudy
3:35 AM 64.4 °F - 61.2 °F 89% 30.07 in 10.0 mi SSE 9.2 mph - N/A   Mostly Cloudy
3:55 AM 64.8 °F - 61.3 °F 89% 30.06 in 10.0 mi SSE 10.4 mph - N/A   Overcast
4:15 AM 64.9 °F - 61.9 °F 90% 30.05 in 7.0 mi SSE 10.4 mph - N/A   Overcast
4:35 AM 64.9 °F - 62.1 °F 90% 30.05 in 7.0 mi SSE 10.4 mph - N/A   Scattered Clouds
4:55 AM 64.8 °F - 62.2 °F 92% 30.05 in 7.0 mi South 13.8 mph 18.4 mph N/A Rain Rain
5:15 AM 64.0 °F - 62.1 °F 93% 30.05 in 7.0 mi SSE 11.5 mph - N/A Rain Rain
5:35 AM 63.9 °F - 61.9 °F 93% 30.04 in 7.0 mi SE 11.5 mph - N/A Rain Light Rain
5:55 AM 63.5 °F - 61.3 °F 93% 30.03 in 10.0 mi SE 10.4 mph - N/A   Drizzle
6:15 AM 63.7 °F - 61.0 °F 91% 30.05 in 10.0 mi SSE 10.4 mph - N/A   Mostly Cloudy
6:35 AM 63.5 °F - 59.9 °F 88% 30.05 in 10.0 mi SSE 9.2 mph - N/A   Overcast
6:55 AM 63.5 °F - 59.9 °F 88% 30.05 in 10.0 mi SSE 8.1 mph - N/A   Overcast
7:15 AM 63.7 °F - 59.9 °F 87% 30.04 in 10.0 mi SSE 10.4 mph - N/A   Overcast
7:35 AM 63.7 °F - 60.1 °F 88% 30.05 in 10.0 mi SSE 10.4 mph - N/A   Mostly Cloudy
7:55 AM 63.9 °F - 60.6 °F 89% 30.05 in 10.0 mi SSE 10.4 mph - N/A   Mostly Cloudy
8:15 AM 63.7 °F - 60.8 °F 90% 30.06 in 10.0 mi SSE 11.5 mph - N/A   Overcast
8:35 AM 64.4 °F - 61.7 °F 91% 30.06 in 10.0 mi SSE 11.5 mph - N/A   Scattered Clouds
8:55 AM 65.5 °F - 62.6 °F 90% 30.06 in 10.0 mi SSE 13.8 mph - N/A   Clear
9:15 AM 66.4 °F - 62.6 °F 88% 30.07 in 10.0 mi SSE 13.8 mph - N/A   Scattered Clouds
9:35 AM 67.3 °F - 61.9 °F 83% 30.07 in 10.0 mi SSE 12.7 mph - N/A   Mostly Cloudy
9:55 AM 67.5 °F - 62.4 °F 84% 30.07 in 10.0 mi SSE 12.7 mph - N/A   Mostly Cloudy
10:15 AM 67.8 °F - 63.0 °F 84% 30.07 in 10.0 mi SSE 15.0 mph 18.4 mph N/A   Scattered Clouds
10:35 AM 68.4 °F - 63.3 °F 84% 30.08 in 7.0 mi SSE 13.8 mph 17.3 mph N/A   Mostly Cloudy
10:55 AM 69.6 °F - 63.7 °F 81% 30.08 in 7.0 mi South 12.7 mph - N/A   Overcast
11:15 AM 71.4 °F - 63.7 °F 76% 30.08 in 7.0 mi South 15.0 mph 19.6 mph N/A   Mostly Cloudy
11:35 AM 72.9 °F - 63.3 °F 72% 30.07 in 7.0 mi South 12.7 mph 18.4 mph N/A   Scattered Clouds
11:55 AM 73.2 °F - 63.5 °F 71% 30.07 in 7.0 mi South 13.8 mph 18.4 mph N/A   Scattered Clouds
12:15 PM 74.1 °F - 63.1 °F 68% 30.07 in 10.0 mi SSW 12.7 mph 17.3 mph N/A   Scattered Clouds
12:35 PM 76.1 °F - 63.5 °F 65% 30.07 in 10.0 mi South 12.7 mph - N/A   Scattered Clouds
12:55 PM 77.2 °F - 63.9 °F 63% 30.07 in 10.0 mi South 13.8 mph - N/A   Scattered Clouds
1:15 PM 77.4 °F - 63.7 °F 63% 30.06 in 10.0 mi South 12.7 mph 18.4 mph N/A   Scattered Clouds
1:35 PM 78.4 °F - 63.1 °F 59% 30.05 in 10.0 mi SSW 13.8 mph 18.4 mph N/A   Clear
1:55 PM 78.3 °F - 62.8 °F 59% 30.05 in 10.0 mi SSW 11.5 mph 17.3 mph N/A   Mostly Cloudy
2:15 PM 80.2 °F 81.5 °F 63.0 °F 55% 30.03 in 10.0 mi South 11.5 mph 17.3 mph N/A   Scattered Clouds
2:35 PM 81.0 °F 81.9 °F 61.9 °F 52% 30.03 in 10.0 mi South 13.8 mph - N/A   Scattered Clouds
2:55 PM 82.4 °F 83.0 °F 61.3 °F 49% 30.02 in 10.0 mi South 15.0 mph - N/A   Scattered Clouds
3:15 PM 82.2 °F 83.2 °F 62.2 °F 51% 30.01 in 10.0 mi South 15.0 mph 18.4 mph N/A   Clear
3:35 PM 82.6 °F 82.8 °F 60.1 °F 46% 30.00 in 10.0 mi South 16.1 mph 21.9 mph N/A   Clear
3:55 PM 82.9 °F 82.7 °F 58.3 °F 43% 29.99 in 10.0 mi SSW 12.7 mph 24.2 mph N/A   Clear
4:15 PM 82.8 °F 82.4 °F 57.2 °F 42% 29.99 in 10.0 mi South 12.7 mph 23.0 mph N/A   Clear
4:35 PM 83.3 °F 82.8 °F 57.6 °F 41% 29.98 in 10.0 mi SSW 12.7 mph 20.7 mph N/A   Clear
4:55 PM 83.3 °F 82.8 °F 57.6 °F 41% 29.98 in 10.0 mi South 11.5 mph - N/A   Clear
5:15 PM 82.9 °F 82.7 °F 58.3 °F 43% 29.98 in 10.0 mi South 18.4 mph 23.0 mph N/A   Clear
5:35 PM 80.6 °F 80.9 °F 58.3 °F 46% 29.98 in 10.0 mi South 11.5 mph 20.7 mph N/A   Scattered Clouds
5:55 PM 79.7 °F - 59.2 °F 49% 29.98 in 10.0 mi South 12.7 mph - N/A   Overcast
6:15 PM 79.9 °F - 59.4 °F 49% 29.98 in 10.0 mi South 16.1 mph - N/A   Mostly Cloudy
6:35 PM 79.2 °F - 59.5 °F 51% 29.98 in 10.0 mi South 13.8 mph 18.4 mph N/A   Scattered Clouds
6:55 PM 79.3 °F - 59.9 °F 51% 29.98 in 10.0 mi South 13.8 mph - N/A   Clear
7:15 PM 77.9 °F - 60.3 °F 54% 29.98 in 10.0 mi South 11.5 mph 18.4 mph N/A   Clear
7:35 PM 76.5 °F - 60.3 °F 57% 29.98 in 10.0 mi South 12.7 mph - N/A   Clear
7:55 PM 75.7 °F - 60.6 °F 59% 29.98 in 10.0 mi South 11.5 mph - N/A   Clear
8:15 PM 74.8 °F - 60.6 °F 61% 29.98 in 10.0 mi SSE 13.8 mph - N/A   Clear
8:35 PM 73.9 °F - 62.6 °F 68% 29.99 in 10.0 mi SSE 15.0 mph 19.6 mph N/A   Clear
8:55 PM 73.2 °F - 63.1 °F 71% 29.99 in 10.0 mi SSE 13.8 mph - N/A   Clear
9:15 PM 72.5 °F - 63.5 °F 73% 30.00 in 10.0 mi SSE 12.7 mph - N/A   Clear
9:35 PM 71.8 °F - 63.5 °F 75% 30.00 in 10.0 mi SSE 13.8 mph - N/A   Clear
9:55 PM 71.6 °F - 62.4 °F 73% 30.01 in 10.0 mi SSE 13.8 mph - N/A   Scattered Clouds
10:15 PM 71.6 °F - 61.2 °F 70% 30.01 in 10.0 mi SSE 15.0 mph 20.7 mph N/A   Scattered Clouds
10:35 PM 71.4 °F - 61.7 °F 71% 30.02 in 10.0 mi SSE 13.8 mph 23.0 mph N/A   Clear
10:55 PM 70.7 °F - 62.1 °F 74% 30.03 in 10.0 mi SSE 12.7 mph - N/A   Clear
11:15 PM 70.2 °F - 62.2 °F 76% 30.03 in 10.0 mi SSE 13.8 mph 18.4 mph N/A   Clear
11:35 PM 69.4 °F - 62.6 °F 79% 30.03 in 10.0 mi SSE 13.8 mph - N/A   Clear
11:55 PM 69.4 °F - 62.4 °F 78% 30.03 in 10.0 mi SSE 13.8 mph - N/A   Clear